#timestamp,LO_Frequency,Hit,StdDev 
1622944815.7,286047002.8,N
1622944835.5,286047002.3,N
1622944855.4,286047000.9,N
1622944875.2,286046999.8,N
1622944895.1,286047000.6,N
1622944896.0,286047000.6,N
1622944915.8,286047001.1,N
1622944935.6,286047001.1,N
1622944955.5,286046999.7,N
1622944975.3,286047001.1,N
1622944995.2,286047000.1,N
1622945015.9,286046999.7,N
1622945035.7,286047001.1,N
1622945055.6,286046998.5,N
1622945075.4,286046998.8,N
1622945095.2,286046998.3,N
1622945115.1,286047001.0,N
1622945116.0,286047001.0,N
1622945135.8,286047000.6,N
1622945155.7,286047000.6,N
1622945175.5,286047000.4,N
1622945195.3,286047001.8,N
1622945215.2,286047004.3,Y
1622945235.0,286047000.6,P
1622945235.9,286047000.6,P
1622945255.8,286046998.5,P
1622945275.6,286046998.6,N
1622945295.4,286047002.6,N
1622945315.3,286047001.7,N
1622945335.1,286047000.7,N
1622945355.8,286047000.8,N
1622945375.7,286047001.1,N
1622945395.5,286047002.8,N
1622945415.4,286047003.9,N
1622945435.2,286047000.6,N
1622945455.0,286047000.9,N
1622945455.9,286047000.9,N
1622945475.8,286047002.0,N
1622945495.6,286047003.2,N
1622945515.4,286047002.7,N
1622945535.3,286047003.1,N
1622945555.1,286047003.7,N
1622945575.9,286047003.9,N
1622945595.7,286047005.8,Y
1622945615.5,286047002.2,P
1622945635.4,286046999.7,N
1622945655.2,286047002.6,N
1622945675.1,286047002.3,N
1622945676.0,286047002.3,N
1622945695.8,286047003.9,Y
1622945715.6,286046998.4,P
1622945735.5,286046998.8,N
1622945755.3,286046999.3,N
1622945775.2,286047001.2,N
1622945795.9,286047002.5,N
1622945815.7,286047002.1,N
1622945835.6,286047000.8,N
1622945855.4,286046999.1,N
1622945875.3,286046997.3,N
1622945895.1,286046997.1,N
1622945896.0,286046997.1,N
1622945915.8,286046997.1,N
1622945935.7,286046997.6,N
1622945955.5,286046997.8,N
1622945975.3,286046997.5,N
1622945995.2,286046995.7,N
1622946015.0,286046996.1,N
1622946015.9,286046996.1,N
1622946035.8,286046997.4,N
1622946055.6,286046999.3,N
1622946075.4,286046997.1,N
1622946095.3,286046995.3,N
1622946115.1,286046997.6,N
1622946135.8,286046995.2,N
1622946155.7,286046995.2,N
1622946175.5,286046997.2,N
1622946195.4,286046994.9,N
1622946215.2,286046993.3,Y
1622946235.0,286046996.7,P
1622946235.9,286046996.7,P
1622946255.8,286046997.5,P
1622946275.6,286046999.5,N
1622946295.5,286046998.8,N
1622946315.3,286046999.2,N
1622946335.1,286047000.6,N
1622946355.9,286046999.6,N
1622946375.7,286046999.6,N
1622946395.5,286046996.7,N
1622946415.4,286046999.4,N
1622946435.2,286046999.4,N
1622946455.1,286046999.9,N
1622946456.0,286046999.9,N
1622946475.8,286047000.7,N
1622946495.6,286046999.1,N
1622946515.5,286046999.2,N
1622946535.3,286047000.7,N
1622946555.1,286046998.6,N
1622946575.9,286047002.5,N
1622946595.7,286047002.2,N
1622946615.6,286047002.8,N
1622946635.4,286047000.5,N
1622946655.2,286047000.4,N
1622946675.1,286046999.2,N
1622946676.0,286046999.2,N
1622946695.8,286047000.2,N
1622946715.7,286047000.1,N
1622946735.5,286047002.2,N
1622946755.3,286047001.5,N
1622946775.2,286047002.2,N
1622946795.0,286047000.9,N
1622946795.9,286047000.9,N
1622946815.7,286046999.7,N
1622946835.6,286047003.2,N
1622946855.4,286047002.3,N
1622946875.3,286047000.4,N
1622946895.1,286047001.1,N
1622946896.0,286047001.1,N
1622946915.8,286046998.3,N
1622946935.7,286046998.6,N
1622946955.5,286047002.4,N
1622946975.3,286047000.5,N
1622946995.2,286047000.1,N
1622947015.0,286046999.9,N
1622947015.9,286046999.9,N
1622947035.8,286047000.8,N
1622947055.6,286047002.3,N
1622947075.4,286047000.3,N
1622947095.3,286047001.9,N
1622947115.1,286047000.2,N
1622947135.9,286047000.5,N
1622947155.7,286047000.2,N
1622947175.5,286046999.7,N
1622947195.4,286046999.8,N
1622947215.2,286047000.3,N
1622947235.0,286046998.3,N
1622947235.9,286046998.3,N
1622947255.8,286046998.7,N
1622947275.6,286046999.0,N
1622947295.5,286047001.2,N
1622947315.3,286047000.7,N
1622947335.1,286047000.5,N
1622947355.9,286046999.9,N
1622947375.7,286047001.0,N
1622947395.6,286046998.1,N
1622947415.4,286047000.2,N
1622947435.2,286046998.6,N
1622947455.1,286046998.3,N
1622947456.0,286046998.3,N
1622947475.8,286046999.1,N
1622947495.6,286046998.6,N
1622947515.5,286046998.8,N
1622947535.3,286046997.0,N
1622947555.2,286046999.2,N
1622947575.9,286046999.3,N
1622947595.7,286047001.2,N
1622947615.6,286046999.6,N
1622947635.4,286046999.2,N
1622947655.3,286046996.5,Y
1622947675.1,286046997.1,P
1622947676.0,286046997.1,N
1622947695.8,286046996.6,P
1622947715.7,286046998.3,N
1622947735.5,286046999.4,N
1622947755.3,286046999.3,N
1622947775.2,286047000.9,N
1622947795.0,286046998.6,N
1622947795.9,286046998.6,N
1622947815.8,286047002.3,N
1622947835.6,286047000.3,N
1622947855.4,286047001.1,N
1622947875.3,286046998.1,N
1622947895.1,286047000.3,N
1622947915.8,286047000.5,N
1622947935.7,286047002.5,N
1622947955.5,286047000.7,N
1622947975.4,286047000.0,N
1622947995.2,286046998.8,N
1622948015.0,286046999.4,N
1622948015.9,286046999.4,N
1622948035.8,286047000.2,N
1622948055.6,286047000.3,N
1622948075.4,286046999.9,N
1622948095.3,286047002.6,N
1622948115.1,286047000.1,N
1622948135.9,286047003.7,N
1622948155.7,286047004.2,N
1622948175.5,286047002.0,N
1622948195.4,286047002.8,N
1622948215.2,286046998.5,N
1622948235.1,286047000.8,N
1622948236.0,286047000.8,N
1622948255.8,286046998.4,N
1622948275.6,286046998.7,N
1622948295.5,286047000.1,N
1622948315.3,286047002.2,N
1622948335.1,286047002.4,N
1622948355.9,286046998.3,N
1622948375.7,286046998.7,N
1622948395.6,286046999.0,N
